FW5399 Weather Reports


time (UTC)temp
C
wind
direction
speed
KPH
gust
KPH
rain 1hr
cm
rain 24hr
cm
rain mn
cm
humidity
%
barometer
mb
20260509054952 13 303 0.0 0.0 0.00 2.21 1.50 95 1002.8
20260509054511 13 303 0.0 0.0 0.00 2.21 1.50 95 1002.8
20260509053733 13 303 0.0 0.0 0.00 2.21 1.50 95 1002.7
20260509052553 14 303 0.0 0.0 0.00 2.21 1.50 94 1002.7
20260509052051 15 303 0.0 0.0 0.00 2.21 1.50 93 1002.8
20260509051940 15 303 0.0 0.0 0.00 2.21 1.50 93 1002.7
20260509051047 15 303 0.0 0.0 0.00 2.21 1.50 93 1002.8
20260509050547 15 305 0.0 0.0 0.00 2.21 1.50 92 1002.7
20260509050048 15 305 0.0 0.0 0.00 2.21 1.50 91 1002.9
20260509045551 16 305 0.0 0.0 0.00 2.21 1.50 91 1002.8
20260509045049 16 305 0.0 0.0 0.00 2.21 1.50 91 1002.8
20260509044547 16 305 0.0 0.0 0.00 2.21 1.50 91 1002.7
20260509044044 16 305 0.0 0.0 0.00 2.21 1.50 91 1002.9
20260509043941 16 305 0.0 0.0 0.00 2.21 1.50 91 1002.7
20260509043446 16 305 0.0 0.0 0.00 2.21 1.50 90 1002.8
20260509042542 16 305 0.0 0.0 0.00 2.21 1.50 89 1002.9
20260509042040 16 305 0.0 0.0 0.00 2.21 1.50 88 1002.8
20260509041536 17 305 0.0 0.0 0.00 2.21 1.50 87 1002.9
20260509041034 17 305 0.0 0.0 0.00 2.21 1.50 86 1002.8
20260509040541 17 305 0.0 0.0 0.00 2.21 1.50 86 1002.9
20260509040034 17 305 0.0 0.0 0.00 2.26 1.50 84 1002.9
20260509035529 18 305 0.0 1.6 0.00 2.29 1.50 82 1003.0
20260509035022 18 305 0.0 3.2 0.00 2.29 1.50 79 1003.0
20260509034517 18 326 0.0 3.2 0.00 2.29 1.50 80 1003.0
20260509034139 18 307 0.0 3.2 0.00 2.29 1.50 81 1002.9
20260509033131 20 230 0.0 1.6 0.00 2.29 1.50 77 1003.0
20260509031944 20 227 0.0 3.2 0.00 2.29 1.50 72 1003.1
20260509031437 21 258 0.0 4.8 0.00 2.29 1.50 70 1003.0
20260509031058 21 286 1.6 9.7 0.00 2.29 1.50 69 1002.9
20260509025918 21 231 1.6 9.7 0.00 2.29 1.50 68 1002.9
20260509025412 21 307 1.6 11.3 0.00 2.29 1.50 67 1002.9
20260509024907 21 270 1.6 11.3 0.00 2.29 1.50 69 1003.1
20260509024400 21 301 1.6 8.0 0.00 2.29 1.50 67 1003.2
20260509023855 21 262 1.6 8.0 0.00 2.29 1.50 70 1003.3
20260509023736 21 235 1.6 6.4 0.00 2.29 1.50 68 1003.3
20260509022843 22 305 1.6 9.7 0.00 2.29 1.50 71 1003.3
20260509022507 21 156 1.6 19.3 0.00 2.29 1.50 66 1003.3
20260509021325 22 271 1.6 6.4 0.00 2.29 1.50 64 1003.2
20260509020818 22 248 1.6 9.7 0.00 2.29 1.50 64 1003.2
20260509020313 22 347 1.6 9.7 0.00 2.29 1.50 64 1003.4
20260509015807 22 230 1.6 8.0 0.00 2.29 1.50 62 1003.4
20260509015301 23 286 1.6 8.0 0.00 2.29 1.50 64 1003.5
20260509014755 22 331 3.2 9.7 0.00 2.29 1.50 68 1003.4
20260509014249 22 290 1.6 9.7 0.00 2.29 1.50 66 1003.5
20260509013742 23 278 0.0 3.2 0.00 2.29 1.50 67 1003.6
20260509013237 22 238 0.0 3.2 0.00 2.29 1.50 74 1003.5
20260509012730 22 201 0.0 4.8 0.00 2.29 1.50 68 1003.6
20260509012225 21 251 1.6 6.4 0.00 2.29 1.50 69 1003.6
20260509011719 21 275 1.6 9.7 0.00 2.29 1.50 72 1003.7
20260509011212 21 328 1.6 9.7 0.00 2.29 1.50 72 1003.8
20260509010707 21 265 1.6 8.0 0.00 2.29 1.50 74 1003.8
20260509010200 20 286 1.6 8.0 0.00 2.29 1.50 75 1003.9
20260509010118 21 337 0.0 8.0 0.00 2.29 1.50 74 1004.0
20260509005148 21 281 0.0 3.2 0.00 2.29 1.50 76 1004.1
20260509004642 20 282 0.0 3.2 0.00 2.29 1.50 78 1004.1
20260509004139 20 216 1.6 6.4 0.00 2.29 1.50 78 1004.1
20260509003630 20 156 1.6 9.7 0.00 2.29 1.50 76 1004.3
20260509003124 20 200 1.6 9.7 0.00 2.29 1.50 76 1004.2
20260509002619 20 224 1.6 6.4 0.00 2.29 1.50 76 1004.4
20260509002112 20 278 1.6 6.4 0.00 2.29 1.50 76 1004.4
20260509001603 20 285 1.6 6.4 0.00 2.29 1.50 79 1004.6
20260509001103 19 267 3.2 11.3 0.00 2.29 1.50 77 1004.6
20260509000952 19 343 3.2 11.3 0.00 2.29 1.50 79 1004.6
20260509000044 19 155 3.2 9.7 0.00 2.29 1.50 80 1004.8
20260508235544 19 189 3.2 9.7 0.00 2.29 1.50 82 1004.9
20260508235042 18 245 1.6 9.7 0.00 2.29 1.50 84 1005.2
20260508234739 18 215 1.6 6.4 0.00 2.29 1.50 82 1005.2
20260508233955 18 239 0.0 1.6 0.00 2.29 1.50 85 1005.5
20260508233213 18 233 1.6 3.2 0.00 2.29 1.50 85 1005.5
20260508232444 18 209 0.0 3.2 0.00 2.29 1.50 85 1005.6
20260508231543 18 273 0.0 3.2 0.00 2.29 1.50 88 1005.7
20260508231050 17 189 0.0 1.6 0.00 2.29 1.50 90 1005.8
20260508230536 17 188 0.0 1.6 0.00 2.29 1.50 91 1005.9
20260508230046 17 187 0.0 1.6 0.00 2.29 1.50 92 1005.9
20260508225537 17 188 0.0 1.6 0.00 2.29 1.50 92 1006.0
20260508225032 17 188 0.0 3.2 0.00 2.29 1.50 94 1006.1
20260508224534 16 188 0.0 3.2 0.00 2.29 1.50 93 1006.0
20260508224048 16 151 0.0 4.8 0.00 2.29 1.50 93 1006.1
20260508223531 16 150 0.0 4.8 0.00 2.29 1.50 93 1006.0
20260508223031 16 164 0.0 3.2 0.00 2.29 1.50 93 1006.1
20260508222532 16 133 0.0 3.2 0.00 2.29 1.50 93 1006.2
20260508222032 16 138 0.0 3.2 0.00 2.29 1.50 93 1006.2
20260508221532 16 166 0.0 3.2 0.00 2.29 1.50 93 1006.3
20260508221030 16 188 0.0 3.2 0.00 2.29 1.50 94 1006.3
20260508220904 16 172 0.0 4.8 0.00 2.29 1.50 94 1006.3
20260508220025 16 171 1.6 6.4 0.00 2.29 1.50 95 1006.4
20260508215522 16 142 1.6 6.4 0.00 2.29 1.50 95 1006.6
20260508215024 16 226 0.0 1.6 0.00 2.29 1.50 96 1006.5
20260508214524 16 156 0.0 1.6 0.00 2.29 1.50 96 1006.5
20260508214022 16 144 0.0 3.2 0.00 2.29 1.50 97 1006.5
20260508213521 16 142 0.0 3.2 0.00 2.29 1.50 97 1006.5
20260508213022 16 155 0.0 3.2 0.00 2.29 1.50 97 1006.5
20260508212523 16 161 0.0 3.2 0.00 2.29 1.50 97 1006.5
20260508212410 15 180 1.6 6.4 0.00 2.29 1.50 97 1006.5
20260508211517 15 187 1.6 6.4 0.00 2.29 1.50 96 1006.7
20260508211423 15 184 1.6 6.4 0.00 2.29 1.50 97 1006.6
20260508210512 16 192 1.6 6.4 0.00 2.29 1.50 98 1006.7
20260508210007 16 130 3.2 6.4 0.00 2.29 1.50 98 1006.7
20260508205507 16 188 1.6 9.7 0.00 2.29 1.50 98 1006.6
20260508205007 16 157 0.0 9.7 0.00 2.29 1.50 98 1006.6
20260508204508 16 194 0.0 1.6 0.03 2.29 1.50 100 1006.6
20260508204005 15 194 0.0 1.6 0.03 2.29 1.50 100 1006.7
20260508203505 15 192 0.0 1.6 0.03 2.29 1.50 100 1006.6
20260508203005 15 189 0.0 0.0 0.03 2.29 1.50 100 1006.7
20260508202503 15 189 0.0 0.0 0.03 2.29 1.50 100 1006.6
20260508202005 15 189 0.0 0.0 0.03 2.29 1.50 100 1006.6
20260508201839 15 189 0.0 0.0 0.03 2.29 1.50 100 1006.7
20260508200959 14 189 0.0 0.0 0.03 2.29 1.50 100 1006.6
20260508200454 14 189 0.0 3.2 0.03 2.29 1.50 100 1006.7
20260508195952 14 189 0.0 3.2 0.03 2.29 1.50 100 1006.6
20260508195452 14 183 0.0 3.2 0.03 2.29 1.50 100 1006.6
20260508195349 13 175 0.0 3.2 0.03 2.29 1.50 100 1006.5
20260508194452 13 213 0.0 0.0 0.00 2.26 1.47 100 1006.6
20260508194343 13 213 0.0 0.0 0.00 2.26 1.47 100 1006.6
20260508193451 13 213 0.0 0.0 0.00 2.26 1.47 100 1006.6
20260508192949 13 213 0.0 1.6 0.00 2.26 1.47 100 1006.4
20260508192447 13 213 0.0 1.6 0.00 2.26 1.47 100 1006.4
20260508191952 13 213 0.0 0.0 0.00 2.26 1.47 100 1006.4
20260508191449 13 212 0.0 0.0 0.00 2.26 1.47 100 1006.6
20260508190947 13 212 0.0 0.0 0.00 2.26 1.47 100 1006.4
20260508190454 13 212 0.0 0.0 0.00 2.26 1.47 100 1006.4
20260508185943 13 212 0.0 0.0 0.00 2.26 1.47 100 1006.3
20260508185612 13 212 0.0 0.0 0.00 2.26 1.47 100 1006.2
20260508184424 13 212 0.0 0.0 0.00 2.26 1.47 100 1006.3
20260508183918 13 212 0.0 0.0 0.00 2.26 1.47 100 1006.3
20260508183412 13 212 0.0 0.0 0.00 2.26 1.47 100 1006.4
20260508182906 13 212 0.0 0.0 0.00 2.26 1.47 99 1006.2
20260508182801 13 212 0.0 0.0 0.00 2.26 1.47 99 1006.0
20260508181854 13 212 0.0 0.0 0.05 2.26 1.47 99 1006.1
20260508181355 14 212 0.0 0.0 0.05 2.26 1.47 100 1006.1
20260508180854 14 212 0.0 0.0 0.05 2.26 1.47 100 1006.2
20260508180353 14 212 0.0 0.0 0.05 2.26 1.47 100 1006.1
20260508175852 14 212 0.0 0.0 0.05 2.26 1.47 100 1006.1
20260508175352 14 212 0.0 1.6 0.05 2.26 1.47 100 1006.4
20260508174852 14 212 0.0 1.6 0.05 2.26 1.47 100 1006.3
20260508174749 14 212 0.0 0.0 0.05 2.26 1.47 99 1006.3
20260508173851 14 212 0.0 1.6 0.05 2.26 1.47 99 1006.1
20260508173353 14 212 0.0 1.6 0.05 2.26 1.47 99 1006.0
20260508172851 14 239 0.0 0.0 0.05 2.26 1.47 99 1005.9
20260508172353 14 239 0.0 0.0 0.03 2.24 1.45 99 1005.6
20260508171850 14 239 0.0 0.0 0.00 2.21 1.45 99 1005.8
20260508171346 14 239 0.0 0.0 0.00 2.21 1.45 99 1005.6
20260508171222 14 239 0.0 0.0 0.00 2.21 1.45 99 1005.6
20260508170344 14 239 0.0 0.0 0.03 2.21 1.45 99 1005.8
20260508165842 15 230 0.0 0.0 0.03 2.21 1.45 99 1005.7
20260508165342 15 230 0.0 0.0 0.05 2.21 1.45 99 1005.6
20260508164842 15 230 0.0 0.0 0.05 2.21 1.45 99 1005.5
20260508164341 15 230 0.0 1.6 0.05 2.21 1.45 99 1005.5
20260508163837 15 230 0.0 1.6 0.05 2.21 1.45 99 1005.6
20260508163337 15 235 0.0 1.6 0.05 2.21 1.45 99 1005.6
20260508163237 15 234 0.0 1.6 0.05 2.21 1.45 99 1005.8
20260508162337 15 238 0.0 0.0 0.10 2.21 1.45 98 1005.9
20260508161835 15 237 0.0 0.0 0.15 2.21 1.45 98 1005.9
20260508161724 15 238 0.0 1.6 0.33 2.21 1.45 98 1006.1
20260508160834 15 237 0.0 3.2 0.38 2.21 1.45 98 1006.2
20260508160336 15 296 0.0 3.2 0.43 2.21 1.42 98 1006.2
20260508155834 15 234 0.0 1.6 0.43 2.21 1.42 98 1006.2
20260508155732 15 234 0.0 8.0 0.48 2.18 1.40 97 1006.3
20260508155233 16 0 0.0 8.0 0.48 2.16 1.40 97 1006.5
20260508154337 16 240 0.0 0.0 0.53 2.16 1.37 98 1006.2
20260508153835 16 240 0.0 3.2 0.56 2.16 1.37 97 1006.1
20260508153336 16 242 1.6 8.0 0.61 2.16 1.37 97 1006.2
20260508152836 16 73 3.2 14.5 0.61 2.16 1.37 97 1006.4
20260508152336 16 265 8.0 32.2 0.58 2.11 1.35 96 1006.2
20260508152241 17 241 6.4 32.2 0.51 2.03 1.27 99 1006.2
20260508151332 17 137 4.8 12.9 0.38 1.91 1.14 99 1005.9
20260508150832 17 137 8.0 25.7 0.33 1.83 1.07 99 1005.8
20260508150536 17 217 8.0 25.7 0.28 1.78 1.02 99 1005.7
20260508145332 17 116 9.7 27.4 0.23 1.70 0.94 98 1006.1
20260508144829 17 182 9.7 27.4 0.23 1.68 0.89 98 1006.0
20260508144734 17 171 4.8 16.1 0.20 1.65 0.86 98 1006.3
20260508144240 17 154 6.4 22.5 0.25 1.63 0.81 97 1006.2
20260508143326 17 172 6.4 22.5 0.30 1.57 0.79 97 1006.3
20260508142827 17 236 6.4 22.5 0.36 1.57 0.76 98 1006.5
20260508142326 17 344 6.4 22.5 0.41 1.57 0.76 98 1006.3
20260508141826 17 185 6.4 16.1 0.41 1.55 0.74 98 1006.5
20260508141325 17 131 6.4 20.9 0.43 1.55 0.74 98 1006.4
20260508140832 17 199 8.0 20.9 0.46 1.55 0.74 98 1006.7
20260508140341 17 180 9.7 19.3 0.48 1.55 0.71 98 1006.7
20260508135825 17 208 9.7 29.0 0.51 1.52 0.71 98 1007.0
20260508135325 17 194 8.0 29.0 0.48 1.50 0.69 98 1006.9
20260508134818 17 120 8.0 27.4 0.51 1.47 0.66 98 1007.2
20260508134312 17 198 9.7 27.4 0.51 1.45 0.64 98 1007.2
20260508133805 17 175 6.4 20.9 0.46 1.37 0.58 98 1007.4
20260508133716 17 167 6.4 19.3 0.43 1.30 0.51 98 1007.1
20260508133201 17 149 8.0 20.9 0.33 1.19 0.41 98 1007.0
20260508132247 17 154 8.0 24.1 0.33 1.17 0.36 98 1007.2
20260508131746 17 182 6.4 17.7 0.33 1.17 0.33 98 1007.2
20260508131235 17 144 6.4 16.1 0.30 1.14 0.33 98 1007.2
20260508130729 17 124 6.4 16.1 0.25 1.09 0.28 98 1007.4
20260508130223 17 138 6.4 14.5 0.23 1.07 0.23 98 1007.6
20260508125717 17 151 8.0 19.3 0.20 1.02 0.20 97 1007.6
20260508125212 17 158 8.0 19.3 0.23 1.02 0.20 97 1007.9
20260508124705 17 143 6.4 17.7 0.18 0.99 0.15 97 1008.1
20260508124202 17 124 4.8 17.7 0.15 0.94 0.13 97 1008.2
20260508123704 17 206 4.8 14.5 0.15 0.89 0.08 97 1008.4
20260508123348 17 151 4.8 14.5 0.15 0.89 0.05 97 1008.3
20260508122202 17 174 4.8 12.9 0.15 0.86 0.05 97 1008.6
20260508122059 17 107 6.4 16.1 0.13 0.84 0.05 97 1008.5
20260508121211 17 199 4.8 16.1 0.13 0.84 0.03 97 1008.5
20260508120709 17 182 4.8 14.5 0.10 0.81 0.00 97 1008.7
20260508120204 17 184 6.4 14.5 0.13 0.81 0.00 97 1008.9
20260508115702 17 105 8.0 16.1 0.13 0.81 0.81 96 1009.1
20260508115202 17 151 6.4 16.1 0.10 0.79 0.81 96 1009.1
20260508114703 17 151 4.8 14.5 0.10 0.79 0.79 96 1009.2
20260508114202 17 165 6.4 14.5 0.08 0.79 0.79 96 1009.4
20260508113702 17 75 6.4 19.3 0.05 0.74 0.74 95 1009.4
20260508113158 17 148 6.4 19.3 0.03 0.71 0.71 95 1009.6
20260508112703 17 163 6.4 19.3 0.03 0.71 0.71 95 1009.7
20260508112157 17 114 6.4 17.7 0.03 0.71 0.71 95 1009.6
20260508111650 17 100 8.0 16.1 0.03 0.71 0.71 95 1009.6
20260508111535 17 37 8.0 19.3 0.03 0.71 0.71 94 1009.8
20260508110637 17 163 6.4 19.3 0.03 0.71 0.71 95 1010.1
20260508110132 17 185 6.4 16.1 0.03 0.71 0.71 95 1010.0
20260508105628 17 172 6.4 16.1 0.03 0.71 0.71 95 1010.1
20260508105119 17 213 6.4 20.9 0.05 0.71 0.71 96 1010.2
20260508104613 17 158 6.4 20.9 0.05 0.71 0.71 96 1010.2
20260508104107 17 178 4.8 17.7 0.05 0.71 0.71 96 1010.1
20260508103601 17 184 4.8 17.7 0.10 0.71 0.71 96 1010.2
20260508103057 17 151 4.8 16.1 0.18 0.71 0.71 97 1010.3
20260508102549 17 210 4.8 20.9 0.20 0.71 0.71 97 1010.6
20260508102043 17 148 4.8 20.9 0.25 0.71 0.71 97 1010.5
20260508101946 17 167 4.8 14.5 0.28 0.71 0.71 97 1010.7
20260508101032 17 127 6.4 20.9 0.28 0.71 0.71 97 1010.9
20260508100941 17 99 4.8 20.9 0.33 0.71 0.71 97 1010.9
20260508100019 17 190 3.2 11.3 0.30 0.69 0.69 98 1010.9
20260508095513 16 198 3.2 9.7 0.33 0.69 0.69 98 1011.0
20260508095007 16 168 3.2 9.7 0.30 0.66 0.66 98 1011.1
20260508094502 16 136 4.8 14.5 0.30 0.66 0.66 98 1011.0
20260508093956 16 151 6.4 14.5 0.28 0.64 0.64 98 1011.1
20260508093450 16 75 6.4 14.5 0.23 0.58 0.58 98 1011.1
20260508092943 16 101 6.4 12.9 0.20 0.51 0.51 98 1011.1
20260508092437 16 184 4.8 12.9 0.15 0.48 0.51 97 1011.3
20260508091931 16 143 4.8 16.1 0.15 0.43 0.43 97 1011.2
20260508091842 16 176 4.8 16.1 0.15 0.43 0.43 97 1011.2
20260508090920 16 150 6.4 14.5 0.15 0.41 0.43 96 1011.3
20260508090555 16 172 6.4 14.5 0.15 0.38 0.38 96 1011.4
20260508085820 16 130 4.8 12.9 0.13 0.36 0.36 96 1011.3
20260508084857 17 50 4.8 11.3 0.13 0.36 0.36 96 1011.4
20260508084350 17 153 6.4 20.9 0.13 0.36 0.36 96 1011.4
20260508083844 17 146 6.4 20.9 0.13 0.33 0.36 97 1011.5
20260508083338 17 75 4.8 17.7 0.15 0.33 0.33 97 1011.6
20260508083302 17 139 6.4 19.3 0.15 0.33 0.33 97 1011.5
20260508082327 17 101 6.4 19.3 0.15 0.30 0.30 97 1011.5
20260508082234 17 210 6.4 17.7 0.13 0.28 0.28 97 1011.5
20260508081313 17 140 6.4 16.1 0.10 0.25 0.25 97 1011.8
20260508080807 17 216 4.8 16.1 0.13 0.25 0.25 97 1011.6
20260508080301 16 118 4.8 12.9 0.10 0.23 0.23 97 1011.9
20260508075758 16 267 4.8 12.9 0.10 0.23 0.23 97 1012.0
20260508075254 16 60 4.8 12.9 0.13 0.23 0.23 97 1012.2
20260508075216 16 199 6.4 19.3 0.13 0.23 0.23 96 1012.3
20260508074246 16 71 6.4 19.3 0.10 0.23 0.23 96 1012.3
20260508073745 16 129 4.8 17.7 0.10 0.23 0.23 96 1012.5
20260508073643 16 117 3.2 14.5 0.08 0.20 0.20 96 1012.5
20260508072741 17 169 3.2 14.5 0.05 0.18 0.18 96 1012.7
20260508072242 17 165 4.8 14.5 0.05 0.15 0.15 96 1012.8
20260508072155 17 219 4.8 11.3 0.05 0.15 0.15 96 1012.9
20260508071240 17 90 4.8 12.9 0.05 0.15 0.15 95 1012.7
20260508070742 17 336 4.8 17.7 0.03 0.15 0.15 95 1012.6
20260508070237 17 157 4.8 17.7 0.03 0.15 0.15 95 1012.5
20260508065738 17 155 4.8 12.9 0.05 0.15 0.15 94 1012.6
20260508065643 17 149 6.4 16.1 0.03 0.13 0.13 93 1012.7
20260508064738 17 72 6.4 16.1 0.03 0.13 0.13 93 1012.8
20260508064236 17 158 6.4 22.5 0.03 0.13 0.13 92 1012.8
20260508063740 17 177 6.4 22.5 0.03 0.13 0.13 90 1013.0
20260508063651 17 123 6.4 22.5 0.03 0.13 0.13 90 1013.1
20260508062737 17 168 6.4 22.5 0.03 0.13 0.13 89 1013.1
20260508062237 17 198 6.4 19.3 0.03 0.13 0.13 90 1013.2
20260508062146 17 189 4.8 19.3 0.03 0.13 0.13 90 1013.2
20260508061239 17 147 3.2 17.7 0.03 0.13 0.13 91 1013.1
20260508060737 17 127 4.8 17.7 0.03 0.13 0.13 91 1013.2
20260508060633 17 176 3.2 14.5 0.03 0.13 0.13 91 1013.2
20260508055736 17 158 1.6 8.0 0.00 0.10 0.10 91 1013.3
20260508055239 17 196 3.2 8.0 0.00 0.10 0.10 91 1013.3